STARLINK-34618

Last updated on Fri Aug 08 2025 00:02:05 GMT+0000 (Coordinated Universal Time)

1 64770U 25147R 25218.84663282 .00031717 00000+0 79895-3 0 9999 2 64770 53.1610 163.8531 0001199 87.2684 272.8459 15.39645311 5745
UTC large
Height (km)
Speed (km/s)
/
Latitude / Longitude
Inclination (degrees)
Orbital Period (minutes)
Azimuth
Elevation
Range (km)
Doppler Factor

Next 0 passes for location: London (51.5072 / 0.1276)

Sorry there are no passes over London.